Location: York
(31.8935°S, 116.7682°E)
Time: 18:26:02
(UTC+08:00)

deb Explorer IX - Pass Details

Date: 25 September 2022
Orbit: 533 x 1057 km, 38.8° (Epoch: 30 November)

Event Time Altitude Azimuth Distance (km) Brightness Sun altitude
Rises 03:13:14 0° 248° (WSW) 2,690 - -34.9°
Reaches altitude 10° 03:15:28 10° 251° (WSW) 1,797 - -34.4°
Maximum altitude 03:19:29 62° 331° (NNW) 621 - -33.7°
Drops below altitude 10° 03:23:44 10° 53° (NE) 1,900 - -32.9°
Exits shadow 03:24:06 - 53° (NE) 2,045 ? -32.8°
Sets 03:26:08 0° 56° (NE) 2,860 ? -32.4°
